Погода в Алейске

Погода в Алейске : погода сейчас, прогноз погоды и архив. Всё, что Вы хотите узнать о погоде в Алейске!

Хотите узнать прогноз погоды в Алейске? Тогда Вам сюда: Погода в Алейске

Поиск расширенной информации на нашем сайте:

Другие новости

Новости СМИ2

Главная страница сайта

Новости сайта

02.10.2013

Напоминаем, что на нашем новом сайте вы можете получить высокодетализированные прогнозы погоды по пунктам России, СНГ и мира (включающие важные для авиации метеовеличины, такие как направление и скорость ветра, видимость, явления погоды, количество и форма облачности, нижняя и верхняя граница облачности), а также ознакомиться с разнообразными материалами по авиационной метеорологии и подборкой полезных ссылок на эту тему.

Сайт Метеоцентр.Азия посвящён разработке технологий оптимизации авиаметеорологического обслуживания, включая проектирование и перспективное создание нескольких автоматизированных авиаметеорологических систем:
- система выпуска высокодетальных прогностических карт явлений погоды для нижнего воздушного пространства по России и ближнему зарубежью;
- система верификации прогнозов TAF (выпускаемых синоптиками официальных АМСГ РФ и ближнего зарубежья) и AUTOTAF (выпускаемых сайтом Метеоцентр.Азия) - выявление ошибок, онлайн-сопоставление с фактической погодой METAR, автоматическое внесение коррективов в прогнозы при резком отклонении фактической погоды от прогноза, подсчёт оправдываемости прогнозов по элементам и в целом;
- система обработки, анализа и отображения авиаметеорологической информации для применения провайдерами метеорологической информации.

Рекомендуем: овощи доставка стоимость

Погода в Алейске - сегодня

Время (UTC), дата Ветер
(°,м/с) 
Видим.   Явления Облачность Т
(°С)
Тd
(°С)
f(%) Тe
(°С)
Pmin
(гПа)
dP
(гПа)
Po
(мм)
O2
(г/м3)
Тmin Tmax R s Состояние
почвы
03 21.02.17 180 (Ю) 8-15{18}  4000 м  метель  10/10 600 м 
[Sc]
-4.9 -7.2 84 -10  1025.5  -1.5  752  309           
06 21.02.17 180 (Ю) 10-18{22}  0500 м  сильная метель  10/10 600 м 
[Sc]
-4 -5.6 89 -10  1024.1  -1.3  751  308           
09 21.02.17 180 (Ю) 10-17{21}  0500 м  сильная метель  10/10 600 м 
[Sc]
-3.2 -4.9 88 -9  1023.4  -0.6  751  307           
12 21.02.17 190 (Ю) 9-17{19}  1000 м  метель  10/10 600 м 
[Sc]
-2.9 -4.7 87 -8  1024.7  1.3  752  307    -2.9       
15 21.02.17 190 (Ю) 8-13{18}  1000 м  слаб. ливневой снег  10/10 600 м кучево-дожд. 
[Cb cap]
-2.5 -4.3 87 -7  1026.1  1.3  753  307           
18 21.02.17 190 (Ю) 7-12{16}  2000 м  слаб. ливневой снег  10/10 600 м кучево-дожд. 
[Cb cap]
-2.6 -4.7 85 -7  1026.8  0.7  753  307           
21 21.02.17 190 (Ю) 8-13{14}  4000 м  метель{ливн. осадки}  10/10 600 м 
[Sc]
-2.8 -5.6 81 -8  1027.1  0.3  753  307           
00 22.02.17 190 (Ю) 7-13{15}  10 км  позёмок{ливн. осадки}  5/3 600 м верхняя 
[Sc|Ci fib]
-3 -6.1 79 -7  1028  0.9  754  308  -3.3    21  неравномерный
сухой снег
100% 
03 22.02.17 190 (Ю) 7-13{19}  10 км  позёмок  10/8 600 м средняя 
[Sc|Ac As]
-2.8 -5.6 81 -7  1029.3  1.2  755  308           
06 22.02.17 190 (Ю) 7-12{13}  10 км  позёмок  10/3 600 м средняя 
[Sc|Ac trans]
-1 -6.5 66 -5  1029.6  0.4  755  306           
09 22.02.17 180 (Ю) 6-11{13}  20000 м    ясно 
-1.1 -6.6 66 -5  1029.8  0.2  756  306           
12 22.02.17 190 (Ю) 5{11}  20000 м    3/0 верхняя 
[Ci fib]
-3.3 -8.1 69 -7  1030.7  0.8  756  309    -0.8       
15 22.02.17 190 (Ю) 20000 м    ясно 
-5.3 -10.4 67 -9  1032.2  1.2  757  312           
18 22.02.17 190 (Ю) 20000 м    ясно 
-8.2 -12.1 73 -11  1033.1  0.6  758  316           
21 22.02.17 190 (Ю) 20000 м    ясно 
-9.8 -13.5 74 -13  1032.7  -0.5  757  318           
00 23.02.17 210 (ЮЗ) 20000 м    ясно 
-11.3 -14.9 75 -13  1033  0.2  757  320  -11.3      19  неравномерный
сухой снег
100% 
03 23.02.17 190 (Ю) 4000 м  дымка  ясно 
-10.4 -14.5 72 -10  1033.3  0.3  758  319  -12.6         
06 23.02.17 220 (ЮЗ) 20000 м    ясно 
-3.8 -12.5 51 -5  1032.4  -0.3  757  311           
09 23.02.17 170 (Ю) 20000 м    1/0 верхняя 
[Ci fib]
-2.9 -10.8 54 -2  1031.6  -0.7  757  309           
12 23.02.17 тихо ()   20000 м    4/0 верхняя 
[Ci fib]
-5.7 -11 66 -6  1031.4  -0.4  756  312    -2.5       
15 23.02.17 тихо ()   1000 м  дымка  ясно 
-10.9 -12.9 85 -11  1031.4  -0.5  756  319           
18 23.02.17 290 (З) 1000 м  дымка  ясно 
-13.6 -15.7 84 -14  1030.5  -1  755  322           
21 23.02.17 360 (С) 4000 м  дымка  ясно 
-15.5 -17.7 83 -16  1029.6  -1.1  755  324           
00 24.02.17 тихо ()   0500 м  переохл. туман  ясно 
-16.5 -18.7 83 -17  1029.4  -0.4  754  325  -17.3      19  неравномерный
сухой снег
100% 
03 24.02.17 тихо ()   0500 м  переохл. туман  ясно 
-17.1 -19.5 82 -17  1029.3  754  326  -18.1         
Время (UTC), дата Ветер
(°,м/с) 
Видим.   Явления Облачность Т
(°С)
Тd
(°С)
f(%) Тe
(°С)
Pmin
(гПа)
dP
(гПа)
Po
(мм)
O2
(г/м3)
Тmin Tmax R s Состояние
почвы

Для получения пояснительной информации подведите курсор к названию столбца.

ПОГОДА в Алейске - архив

Всё, что Вы хотите узнать о погоде в Алейске - удобно и подробно!

Выберите нужную дату (начиная с 1 января 2015* года) и нажмите кнопку "Найти".
Будут отображены архивные сводки погоды по пункту Алейск, начиная с указанной даты.


Отображать данные в формате CSV (для использования в таблицах Excel)


Внимание! Наш архив погоды предназначен исключительно для личного некоммерческого использования в познавательных целях. Если Вам необходимы официальные справки о состоянии погоды (для производственных, юридических, коммерческих и т.п. целей), обращайтесь в органы Росгидромета.

*Примечание: данная дата относится к архиву по метеостанциям СССР (Россия, СНГ, Балтия).
Архив по метеостанциям Зарубежной Европы и Азии (кроме Китая) хранится 10 дней, по другим регионам земного шара (Китай, Африка, Америка, Австралия, Океания) - 1 день.

Алейск - район местоположения метеостанции


Название, широта, долгота, высота метеостанции:
Алейск 52.6°ш. 82.8°д. 175 м над ур. моря [Российская Федерация]

Дополнительная информация

В oтличие oт бoльшинства пoгoдных сайтoв мы публикуем пoдрoбную метеoинфoрмацию в детальнoм прoфессиoнальнoм фoрмате.

Характеристики температуры и влажнoсти вoздуха измеряются на высoте 2 м в тени вдали oт зданий и деревьев.
Скoрoсть ветра измеряется на высoте 10 м (на урoвне рoста челoвека скoрoсть ветра ниже в 1.5-2 раза). Если метеoстанция нахoдится в гoрoде или в лесу, тo скoрoсть ветра занижена на 2-4 м/с пo сравнению с oткрытым местoм. Скoрoсть ветра над акватoриями крупных рек и oзёр, а также на вершинах хoлмoв на 2-5 м/с выше, чем в oбычных услoвиях.
Атмoсфернoе давление в разных тoчках местнoсти мoжет значительнo oтличаться oт давления на метеoстанции, в зависимoсти oт услoвий рельефа (при пoдъёме на 10 м давление пoнижается примернo на 1 мм рт.ст.).